Retour au catalogue

STARLINK-32231

ActifCommunicationsVLEO
NORAD 60439·PAYLOAD·🇺🇸 United States

Lancé Aug 12, 2024 depuis Cape Canaveral Space Force Station

Loading…

Prochains Passages (prochaines 24 heures)

TLE

FraisSource: CelesTrak SupGP

Époque: Sep 14, 2026, 20:51 UTC

1 60439C 24144Q   26257.86923611  .00046039  00000+0  13604-2 0  2579
2 60439  53.1589  54.2636 0001247  77.4003 220.3087 15.34363275    18

Suivez STARLINK-32231 en temps réel avec AllMySat

Download on the App Store